This is the latest recevied weather packets stored in our database for station/object N9GKE-1. If no packets are shown the sender has not sent any weather packets the latest 10 day(s).
| Time | Temp. | Humidity | Pressure | Rain* | Wind** | Luminosity | Snow |
|---|---|---|---|---|---|---|---|
| 1778252950 | 13.89° C | 67% | 1011.9 hPa | 0 mm | - | - | - |
| 1778252495 | 13.89° C | 67% | 1011.8 hPa | 0 mm | - | - | - |
| 1778252349 | 13.89° C | 66% | 1011.9 hPa | 0 mm | - | - | - |
| 1778251896 | 14.44° C | 64% | 1012 hPa | 0 mm | - | - | - |
| 1778251750 | 14.44° C | 64% | 1011.9 hPa | 0 mm | - | - | - |
| 1778251294 | 14.44° C | 65% | 1011.9 hPa | 0 mm | - | - | - |
| 1778251150 | 14.44° C | 64% | 1011.9 hPa | 0 mm | - | - | - |
| 1778250695 | 15° C | 64% | 1011.9 hPa | 0 mm | - | - | - |
| 1778250551 | 15° C | 63% | 1011.9 hPa | 0 mm | - | - | - |
| 1778250094 | 14.44° C | 66% | 1012 hPa | 0 mm | - | - | - |
| 1778249951 | 14.44° C | 65% | 1012 hPa | 0 mm | - | - | - |
| 1778249494 | 13.89° C | 67% | 1012.2 hPa | 0 mm | - | - | - |
| 1778249351 | 13.89° C | 69% | 1012.2 hPa | 0 mm | - | - | - |
| 1778248894 | 13.33° C | 69% | 1012.2 hPa | 0 mm | - | - | - |
| 1778248749 | 13.33° C | 70% | 1012.1 hPa | 0 mm | - | - | - |
| 1778248295 | 12.78° C | 70% | 1012.4 hPa | 0 mm | - | - | - |
| 1778248150 | 12.78° C | 70% | 1012.4 hPa | 0 mm | - | - | - |
| 1778247695 | 12.78° C | 69% | 1012.5 hPa | 0 mm | - | - | - |
| 1778247549 | 12.78° C | 69% | 1012.5 hPa | 0 mm | - | - | - |
| 1778247094 | 12.78° C | 70% | 1012.5 hPa | 0 mm | - | - | - |
| 1778246949 | 12.78° C | 70% | 1012.4 hPa | 0 mm | - | - | - |
| 1778246495 | 12.22° C | 71% | 1012.5 hPa | 0 mm | - | - | - |
| 1778246350 | 12.22° C | 71% | 1012.6 hPa | 0 mm | - | - | - |
| 1778245895 | 11.67° C | 71% | 1012.5 hPa | 0 mm | - | - | - |
| 1778245749 | 11.67° C | 72% | 1012.5 hPa | 0 mm | - | - | - |
* Rain latest hour (hover to see other rain measurements)
** Current wind speed in m/s (hover to see current wind gust speed)